Location: *
(50.2903°S, 172.5375°W)
Time: 16:31:40
(UTC+00:00)

Cosmos 1733 - Pass Details

Date: 17 November 2019
Orbit: 504 x 524 km, 82.5° (Epoch: 05 December)

Event Time Altitude Azimuth Distance (km) Brightness Sun altitude
Exits shadow 12:21:30 46° 26° (NNE) 711 3.5 -19.2°
Maximum altitude 12:22:25 63° 84° (E) 590 3.4 -19.1°
Drops below altitude 10° 12:26:18 10° 164° (SSE) 1,785 7.2 -19.0°
Sets 12:28:29 0° 167° (SSE) 2,685 8.5 -18.9°
